EW4931 Weather Reports


Display with metric or nautical units.
time (UTC)temp
F
wind
direction
speed
MPH
gust
MPH
rain 1hr
in
rain 24hr
in
rain mn
in
humidity
%
barometer
mb
20260506011008 35 83 0.0 0.0 0.00 0.00 0.00 89 1011.5
20260506010947 35 83 0.0 0.0 0.00 0.00 0.00 90 1011.5
20260506010008 35 83 0.0 0.0 0.00 0.00 0.00 90 1011.3
20260506005506 35 83 0.0 0.0 0.00 0.00 0.00 91 1011.2
20260506005005 35 83 0.0 0.0 0.00 0.00 0.00 91 1011.3
20260506004505 35 83 0.0 0.0 0.00 0.00 0.00 91 1011.2
20260506004228 35 83 0.0 0.0 0.00 0.00 0.00 91 1011.2
20260506003506 34 83 0.0 0.0 0.00 0.00 0.00 91 1011.2
20260506003005 34 83 0.0 0.0 0.00 0.00 0.00 91 1011.2
20260506002505 34 83 0.0 0.0 0.00 0.00 0.00 90 1011.1
20260506002005 34 83 0.0 0.0 0.00 0.00 0.00 90 1011.1
20260506001505 34 83 0.0 0.0 0.00 0.00 0.00 90 1011.1
20260506001005 35 83 0.0 0.0 0.00 0.00 0.00 90 1011.0
20260506000504 35 83 0.0 0.0 0.00 0.00 0.00 90 1011.0
20260506000006 35 83 0.0 0.0 0.00 0.00 0.00 90 1011.0
20260505235504 35 83 0.0 0.0 0.00 0.00 0.00 89 1011.0
20260505235004 35 83 0.0 0.0 0.00 0.00 0.00 89 1010.9
20260505234504 36 83 0.0 0.0 0.00 0.00 0.00 89 1010.9
20260505234004 36 83 0.0 0.0 0.00 0.00 0.00 90 1011.0
20260505233503 36 83 0.0 0.0 0.00 0.00 0.00 89 1010.9
20260505233004 36 83 0.0 1.0 0.00 0.00 0.00 89 1010.9
20260505232504 36 83 0.0 1.0 0.00 0.00 0.00 89 1010.9
20260505232003 37 83 0.0 0.0 0.00 0.00 0.00 89 1010.8
20260505231504 37 83 0.0 1.0 0.00 0.00 0.00 89 1010.8
20260505231004 37 83 0.0 1.0 0.00 0.00 0.00 88 1010.7
20260505230725 37 83 0.0 0.0 0.00 0.00 0.00 89 1010.8
20260505230016 37 83 0.0 0.0 0.00 0.00 0.00 88 1010.7
20260505225504 38 83 0.0 0.0 0.00 0.00 0.00 88 1010.7
20260505225005 38 83 0.0 0.0 0.00 0.00 0.00 87 1010.7
20260505224505 38 83 0.0 0.0 0.00 0.00 0.00 88 1010.7
20260505224004 38 83 0.0 0.0 0.00 0.00 0.00 87 1010.7
20260505223504 38 83 0.0 0.0 0.00 0.00 0.00 87 1010.7
20260505223005 38 83 0.0 0.0 0.00 0.00 0.00 87 1010.6
20260505222504 38 83 0.0 0.0 0.00 0.00 0.00 86 1010.6
20260505222004 38 83 0.0 1.0 0.00 0.00 0.00 86 1010.5
20260505221504 38 83 0.0 2.0 0.00 0.00 0.00 87 1010.6
20260505221004 38 83 2.0 2.0 0.00 0.00 0.00 86 1010.5
20260505220504 38 83 0.0 2.0 0.00 0.00 0.00 86 1010.5
20260505220004 38 83 1.0 2.0 0.00 0.00 0.00 86 1010.4
20260505215728 38 83 0.0 2.0 0.00 0.00 0.00 85 1010.4
20260505215004 38 83 2.0 2.0 0.00 0.00 0.00 86 1010.4
20260505214504 39 83 1.0 2.0 0.00 0.00 0.00 86 1010.4
20260505214003 39 83 0.0 0.0 0.00 0.00 0.00 86 1010.4
20260505213504 39 83 0.0 0.0 0.00 0.00 0.00 85 1010.4
20260505213004 39 83 0.0 0.0 0.00 0.00 0.00 85 1010.3
20260505212719 39 83 0.0 1.0 0.00 0.00 0.00 84 1010.3
20260505212002 39 83 0.0 2.0 0.00 0.00 0.00 84 1010.3
20260505211502 40 83 1.0 2.0 0.00 0.00 0.00 84 1010.2
20260505211002 40 83 0.0 2.0 0.00 0.00 0.00 84 1010.2
20260505210503 40 83 0.0 1.0 0.00 0.00 0.00 84 1010.3
20260505210225 40 83 0.0 0.0 0.00 0.00 0.00 83 1010.2
20260505205503 40 83 0.0 0.0 0.00 0.00 0.00 83 1010.2
20260505205004 41 83 0.0 0.0 0.00 0.00 0.00 84 1010.1
20260505204504 40 83 0.0 1.0 0.00 0.00 0.00 83 1010.1
20260505204003 40 83 0.0 1.0 0.00 0.00 0.00 82 1010.0
20260505203504 41 83 0.0 0.0 0.00 0.00 0.00 82 1009.9
20260505203005 41 83 0.0 0.0 0.00 0.00 0.00 81 1009.8
20260505202505 42 83 0.0 0.0 0.00 0.00 0.00 81 1009.8
20260505202001 42 83 0.0 0.0 0.00 0.00 0.00 81 1009.7
20260505201456 42 83 0.0 0.0 0.00 0.00 0.00 80 1009.7
20260505200949 42 83 0.0 0.0 0.00 0.00 0.00 80 1009.7
20260505200709 43 83 0.0 1.0 0.00 0.00 0.00 80 1009.6
20260505195944 43 83 0.0 2.0 0.00 0.00 0.00 79 1009.7
20260505195432 43 83 1.0 2.0 0.00 0.00 0.00 79 1009.6
20260505194928 43 83 1.0 3.0 0.00 0.00 0.00 79 1009.6
20260505194406 43 83 2.0 4.0 0.00 0.00 0.00 79 1009.5
20260505194344 43 83 2.0 4.0 0.00 0.00 0.00 79 1009.4
20260505193404 44 82 2.0 4.0 0.00 0.00 0.00 79 1009.4
20260505192904 44 82 2.0 4.0 0.00 0.00 0.00 78 1009.3
20260505192403 44 82 3.0 4.0 0.00 0.00 0.00 78 1009.3
20260505191903 44 82 2.0 4.0 0.00 0.00 0.00 78 1009.2
20260505191404 44 82 2.0 6.0 0.00 0.00 0.00 78 1009.2
20260505190903 45 61 2.0 7.0 0.00 0.00 0.00 78 1009.1
20260505190403 45 73 5.0 7.0 0.00 0.00 0.00 77 1009.1
20260505185903 45 39 5.0 7.0 0.00 0.00 0.00 76 1009.1
20260505185403 46 86 5.0 10.0 0.00 0.00 0.00 73 1009.0
20260505184903 46 58 7.0 11.0 0.00 0.00 0.00 69 1008.9
20260505184403 47 71 8.0 11.0 0.00 0.00 0.00 47 1008.8
20260505184125 48 347 1.0 4.0 0.00 0.00 0.00 43 1008.7
20260505183403 49 344 2.0 5.0 0.00 0.00 0.00 42 1008.7
20260505182903 49 312 2.0 5.0 0.00 0.00 0.00 42 1008.6
20260505182404 49 317 3.0 6.0 0.00 0.00 0.00 41 1008.5
20260505181904 49 317 3.0 7.0 0.00 0.00 0.00 41 1008.5
20260505181404 49 334 4.0 7.0 0.00 0.00 0.00 40 1008.4
20260505181123 49 310 5.0 9.0 0.00 0.00 0.00 40 1008.3
20260505180403 49 300 4.0 9.0 0.00 0.00 0.00 39 1008.3
20260505175903 49 323 5.0 7.0 0.00 0.00 0.00 39 1008.3
20260505175404 49 307 4.0 10.0 0.00 0.00 0.00 39 1008.2
20260505174904 49 293 4.0 10.0 0.00 0.00 0.00 39 1008.2
20260505174403 49 326 4.0 11.0 0.00 0.00 0.00 39 1008.1
20260505173903 49 307 8.0 11.0 0.00 0.00 0.00 39 1008.1
20260505173626 50 288 5.0 10.0 0.00 0.00 0.00 38 1008.0
20260505173128 50 275 4.0 7.0 0.00 0.00 0.00 39 1008.0
20260505172403 50 320 6.0 10.0 0.00 0.00 0.00 39 1007.9
20260505171903 50 290 6.0 10.0 0.00 0.00 0.00 37 1007.9
20260505171403 50 289 3.0 6.0 0.00 0.00 0.00 37 1007.8
20260505170903 50 285 4.0 10.0 0.00 0.00 0.00 37 1007.9
20260505170404 51 282 3.0 10.0 0.00 0.00 0.00 37 1007.8
20260505165904 51 303 4.0 10.0 0.00 0.00 0.00 37 1007.8
20260505165403 50 299 4.0 10.0 0.00 0.00 0.00 37 1007.8
20260505164903 50 293 5.0 9.0 0.00 0.00 0.00 36 1007.8
20260505164403 50 306 5.0 9.0 0.00 0.00 0.00 37 1007.8
20260505163903 50 314 5.0 9.0 0.00 0.00 0.00 36 1007.7
20260505163403 51 293 3.0 14.0 0.00 0.00 0.00 37 1007.7
20260505163129 51 292 5.0 14.0 0.00 0.00 0.00 36 1007.7
20260505162404 51 313 5.0 12.0 0.00 0.00 0.00 37 1007.7
20260505161904 51 313 6.0 12.0 0.00 0.00 0.00 35 1007.7
20260505161404 51 290 6.0 10.0 0.00 0.00 0.00 35 1007.7
20260505160903 51 326 5.0 13.0 0.00 0.00 0.00 35 1007.6
20260505160404 52 314 5.0 13.0 0.00 0.00 0.00 35 1007.7
20260505160127 52 316 6.0 12.0 0.00 0.00 0.00 34 1007.6
20260505152902 53 0 4.0 11.0 0.00 0.00 0.00 34 1007.3
20260505152625 52 288 3.0 10.0 0.00 0.00 0.00 34 1007.4
20260505151903 51 316 6.0 10.0 0.00 0.00 0.00 35 1007.4
20260505151403 52 286 6.0 12.0 0.00 0.00 0.00 34 1007.3
20260505150903 52 292 10.0 14.0 0.00 0.00 0.00 33 1007.3
20260505150404 52 357 6.0 16.0 0.00 0.00 0.00 33 1007.3
20260505150123 52 274 6.0 16.0 0.00 0.00 0.00 34 1007.3
20260505140403 52 319 6.0 13.0 0.00 0.00 0.00 36 1007.2
20260505124905 51 310 10.0 15.0 0.00 0.00 0.00 37 1007.1
20260505124631 51 269 6.0 15.0 0.00 0.00 0.00 36 1007.0
20260505123905 52 290 10.0 15.0 0.00 0.00 0.00 36 1007.1
20260505123401 52 296 8.0 13.0 0.00 0.00 0.00 34 1007.1
20260505122902 52 299 6.0 15.0 0.00 0.00 0.00 35 1007.0
20260505122626 52 298 8.0 15.0 0.00 0.00 0.00 35 1007.2
20260505121902 52 319 10.0 15.0 0.00 0.00 0.00 36 1007.0
20260505121402 52 313 7.0 14.0 0.00 0.00 0.00 36 1007.0
20260505120902 52 314 8.0 17.0 0.00 0.00 0.00 38 1006.9
20260505120620 51 329 8.0 17.0 0.00 0.00 0.00 38 1006.9
20260505115903 51 314 9.0 17.0 0.00 0.00 0.00 38 1007.0
20260505115623 51 309 8.0 17.0 0.00 0.00 0.00 39 1006.9
20260505114902 51 336 11.0 17.0 0.00 0.00 0.00 40 1006.9
20260505114402 51 303 9.0 21.0 0.00 0.00 0.00 42 1006.8
20260505114123 50 302 13.0 21.0 0.00 0.00 0.00 41 1006.9
20260505113623 51 319 11.0 16.0 0.00 0.00 0.00 39 1006.9
20260505112902 51 283 7.0 16.0 0.00 0.00 0.00 41 1007.0
20260505112402 51 327 7.0 16.0 0.00 0.00 0.00 41 1006.8
20260505112123 52 233 8.0 12.0 0.00 0.00 0.00 41 1006.9
20260505111403 51 323 6.0 14.0 0.00 0.00 0.00 42 1006.8
20260505110902 51 307 8.0 15.0 0.00 0.00 0.00 42 1006.8
20260505110402 52 306 9.0 16.0 0.00 0.00 0.00 42 1006.8
20260505101903 51 0 9.0 13.0 0.00 0.00 0.00 49 1006.5
20260505101403 51 331 5.0 12.0 0.00 0.00 0.00 52 1006.6
20260505100901 50 0 6.0 15.0 0.00 0.00 0.00 51 1006.5
20260505100402 50 3 8.0 15.0 0.00 0.00 0.00 54 1006.5
20260505095901 51 316 8.0 15.0 0.00 0.00 0.00 53 1006.4
20260505095402 50 6 6.0 15.0 0.00 0.00 0.00 53 1006.4
20260505095123 50 279 7.0 15.0 0.00 0.00 0.00 55 1006.3
20260505094403 49 298 9.0 15.0 0.00 0.00 0.00 54 1006.4
20260505093903 49 293 10.0 16.0 0.00 0.00 0.00 54 1006.4
20260505093402 49 283 11.0 16.0 0.00 0.00 0.00 55 1006.4
20260505092901 49 323 11.0 16.0 0.00 0.00 0.00 57 1006.4
20260505092402 49 271 5.0 15.0 0.00 0.00 0.00 55 1006.4
20260505091902 49 286 10.0 17.0 0.00 0.00 0.00 56 1006.3
20260505091402 49 321 12.0 17.0 0.00 0.00 0.00 56 1006.3
20260505090903 50 286 6.0 13.0 0.00 0.00 0.00 56 1006.3
20260505090403 49 347 6.0 13.0 0.00 0.00 0.00 61 1006.2
20260505085903 48 310 8.0 17.0 0.00 0.00 0.00 60 1006.3
20260505085622 48 278 8.0 17.0 0.00 0.00 0.00 60 1006.2
20260505085121 48 306 5.0 14.0 0.00 0.00 0.00 60 1006.1
20260505084403 48 275 10.0 15.0 0.00 0.00 0.00 60 1006.1
20260505083903 47 316 8.0 16.0 0.00 0.00 0.00 61 1006.1
20260505083630 48 303 10.0 16.0 0.00 0.00 0.00 60 1006.1
20260505082903 48 296 9.0 16.0 0.00 0.00 0.00 62 1006.1
20260505082403 48 324 11.0 16.0 0.00 0.00 0.00 62 1006.1
20260505081903 48 323 10.0 17.0 0.00 0.00 0.00 63 1006.0
20260505081403 47 293 12.0 17.0 0.00 0.00 0.00 62 1005.9
20260505081351 47 279 5.0 13.0 0.00 0.00 0.00 64 1005.8
20260505080621 47 298 9.0 17.0 0.00 0.00 0.00 63 1005.9
20260505075903 47 314 9.0 17.0 0.00 0.00 0.00 63 1005.7
20260505075404 47 296 7.0 14.0 0.00 0.00 0.00 65 1005.7
20260505074904 47 259 9.0 14.0 0.00 0.00 0.00 66 1005.7
20260505074404 47 316 6.0 14.0 0.00 0.00 0.00 67 1005.7
20260505073903 47 278 7.0 14.0 0.00 0.00 0.00 67 1005.7
20260505073620 46 303 6.0 13.0 0.00 0.00 0.00 68 1005.6
20260505072903 46 324 4.0 13.0 0.00 0.00 0.00 68 1005.6
20260505072404 47 300 7.0 13.0 0.00 0.00 0.00 67 1005.6
20260505072127 47 285 7.0 13.0 0.00 0.00 0.00 67 1005.5
20260505071403 47 298 6.0 9.0 0.00 0.00 0.00 72 1005.4
20260505070904 46 337 2.0 9.0 0.00 0.00 0.00 70 1005.4
20260505070403 46 306 4.0 9.0 0.00 0.00 0.00 71 1005.4
20260505065903 46 307 5.0 9.0 0.00 0.00 0.00 70 1005.3
20260505065402 46 303 4.0 12.0 0.00 0.00 0.00 70 1005.3
20260505065126 46 11 4.0 12.0 0.00 0.00 0.00 70 1005.3
20260505064403 46 285 5.0 10.0 0.00 0.00 0.00 72 1005.2
20260505063903 46 296 3.0 11.0 0.00 0.00 0.00 72 1005.2
20260505063404 46 323 5.0 13.0 0.00 0.00 0.00 72 1005.2
20260505062903 46 289 5.0 13.0 0.00 0.00 0.00 73 1005.1
20260505062403 46 321 7.0 13.0 0.00 0.00 0.00 71 1005.1
20260505061904 46 326 4.0 10.0 0.00 0.00 0.00 71 1005.0
20260505061404 46 341 4.0 11.0 0.00 0.00 0.00 73 1005.0
20260505060903 46 327 4.0 11.0 0.00 0.00 0.00 74 1005.0
20260505060404 45 329 6.0 9.0 0.00 0.00 0.00 76 1004.9
20260505055904 45 295 2.0 10.0 0.00 0.00 0.00 76 1004.9
20260505055625 45 354 6.0 12.0 0.00 0.00 0.00 76 1004.8
20260505054904 45 285 9.0 12.0 0.00 0.00 0.00 75 1004.6
20260505054404 46 290 6.0 10.0 0.00 0.00 0.00 74 1004.6
20260505053903 46 279 6.0 10.0 0.00 0.00 0.00 75 1004.5
20260505053404 46 298 4.0 10.0 0.00 0.00 0.00 74 1004.4
20260505052903 46 317 8.0 10.0 0.00 0.00 0.00 74 1004.3
20260505052851 46 276 4.0 12.0 0.00 0.00 0.00 74 1004.3
20260505051903 46 336 4.0 12.0 0.00 0.00 0.00 74 1004.2
20260505051403 46 323 6.0 11.0 0.00 0.00 0.00 74 1004.2
20260505050903 46 351 6.0 12.0 0.00 0.00 0.00 73 1004.1
20260505050403 46 298 7.0 14.0 0.00 0.00 0.00 73 1004.0
20260505041403 47 283 8.0 13.0 0.00 0.00 0.00 70 1003.6
20260505041127 47 330 9.0 12.0 0.00 0.00 0.00 76 1003.6
20260505040403 47 303 3.0 17.0 0.00 0.00 0.00 76 1003.6
20260505040058 47 302 4.0 17.0 0.00 0.00 0.00 76 1003.5
20260505034903 47 290 7.0 14.0 0.00 0.00 0.00 76 1003.4
20260505034402 47 289 7.0 14.0 0.00 0.00 0.00 76 1003.3
20260505033904 47 307 7.0 16.0 0.00 0.00 0.00 76 1003.3
20260505033404 47 298 5.0 16.0 0.00 0.00 0.00 76 1003.2
20260505032904 47 306 7.0 17.0 0.00 0.00 0.00 76 1003.2
20260505032403 47 295 7.0 17.0 0.00 0.00 0.00 75 1003.2
20260505031904 47 300 6.0 12.0 0.00 0.00 0.00 75 1003.1
20260505031628 47 274 7.0 15.0 0.00 0.00 0.00 75 1003.1
20260505031120 47 237 11.0 15.0 0.00 0.00 0.00 75 1003.1
20260505030403 47 289 7.0 14.0 0.00 0.00 0.00 75 1003.1
20260505025903 47 281 7.0 11.0 0.00 0.00 0.00 74 1003.0
20260505025402 47 288 6.0 20.0 0.00 0.00 0.00 74 1002.9
20260505024903 47 285 11.0 20.0 0.00 0.00 0.00 73 1002.9
20260505024403 47 329 5.0 15.0 0.00 0.00 0.00 73 1002.9
20260505023902 47 252 7.0 15.0 0.00 0.00 0.00 73 1002.8
20260505023403 47 303 4.0 13.0 0.00 0.00 0.00 72 1002.8
20260505022901 47 282 6.0 12.0 0.00 0.00 0.00 72 1002.8
20260505022402 47 295 6.0 12.0 0.00 0.00 0.00 71 1002.8
20260505021902 47 290 5.0 12.0 0.00 0.00 0.00 71 1002.8
20260505021401 47 279 9.0 12.0 0.00 0.00 0.00 70 1002.8
20260505021124 47 274 7.0 12.0 0.00 0.00 0.00 70 1002.7
20260505020402 47 261 8.0 13.0 0.00 0.00 0.00 69 1002.7
20260505015902 47 276 6.0 13.0 0.00 0.00 0.00 69 1002.6
20260505015402 47 330 6.0 12.0 0.00 0.00 0.00 68 1002.6
20260505014902 47 282 5.0 15.0 0.00 0.00 0.00 68 1002.5
20260505014622 47 265 7.0 17.0 0.00 0.00 0.00 67 1002.6
20260505013901 47 274 8.0 17.0 0.00 0.00 0.00 67 1002.6
20260505013402 47 268 6.0 13.0 0.00 0.00 0.00 66 1002.6
20260505012902 47 231 5.0 12.0 0.00 0.00 0.00 66 1002.5
20260505012402 47 295 5.0 13.0 0.00 0.00 0.00 65 1002.5
20260505011902 48 307 7.0 13.0 0.00 0.00 0.00 65 1002.6